TimePDT,TemperatureF,Dew PointF,Humidity,Sea Level PressureIn,VisibilityMPH,Wind Direction,Wind SpeedMPH,Gust SpeedMPH,PrecipitationIn,Events,Conditions,WindDirDegrees,DateUTC
12:53 AM,64.0,51.1,63,30.01,10.0,NW,8.1,-,N/A,,Clear,320,2013-08-19 07:53:00
1:53 AM,64.9,50.0,58,30.01,10.0,NNW,17.3,-,N/A,,Clear,340,2013-08-19 08:53:00
2:53 AM,64.9,50.0,58,30.00,10.0,NW,19.6,28.8,N/A,,Clear,320,2013-08-19 09:53:00
3:53 AM,63.0,50.0,63,29.99,10.0,NW,17.3,-,N/A,,Clear,310,2013-08-19 10:53:00
4:53 AM,63.0,50.0,63,29.99,10.0,NW,16.1,-,N/A,,Clear,310,2013-08-19 11:53:00
5:53 AM,63.0,50.0,63,30.00,10.0,NNW,16.1,24.2,N/A,,Clear,330,2013-08-19 12:53:00
6:53 AM,64.0,50.0,60,30.01,10.0,NNW,18.4,26.5,N/A,,Clear,330,2013-08-19 13:53:00
7:53 AM,66.9,48.9,52,30.02,10.0,NW,21.9,28.8,N/A,,Clear,320,2013-08-19 14:53:00
8:53 AM,71.1,46.0,41,30.01,10.0,NW,20.7,25.3,N/A,,Clear,320,2013-08-19 15:53:00
9:53 AM,75.9,46.9,36,30.01,10.0,NW,23.0,31.1,N/A,,Clear,320,2013-08-19 16:53:00
10:53 AM,78.1,51.1,39,30.01,10.0,NW,20.7,31.1,N/A,,Clear,310,2013-08-19 17:53:00
11:53 AM,80.1,51.1,36,30.01,10.0,NW,27.6,33.4,N/A,,Clear,320,2013-08-19 18:53:00
12:53 PM,82.0,51.1,34,30.00,10.0,NW,24.2,35.7,N/A,,Clear,320,2013-08-19 19:53:00
1:53 PM,82.0,48.9,31,29.99,10.0,NNW,25.3,32.2,N/A,,Clear,330,2013-08-19 20:53:00
2:53 PM,84.0,46.0,26,29.97,10.0,NNW,27.6,38.0,N/A,,Clear,330,2013-08-19 21:53:00
3:53 PM,82.9,44.1,25,29.97,10.0,NW,25.3,36.8,N/A,,Clear,320,2013-08-19 22:53:00
4:53 PM,82.0,43.0,25,29.96,10.0,NW,29.9,38.0,N/A,,Clear,320,2013-08-19 23:53:00
5:53 PM,79.0,45.0,30,29.96,10.0,NW,26.5,38.0,N/A,,Clear,320,2013-08-20 00:53:00
6:53 PM,75.9,46.0,35,29.96,10.0,NW,26.5,35.7,N/A,,Clear,320,2013-08-20 01:53:00
7:53 PM,72.0,48.0,43,29.99,10.0,NW,18.4,-,N/A,,Clear,310,2013-08-20 02:53:00
8:53 PM,69.1,48.9,49,30.01,10.0,WNW,17.3,-,N/A,,Clear,300,2013-08-20 03:53:00
9:53 PM,66.9,50.0,54,30.01,10.0,NW,17.3,-,N/A,,Clear,310,2013-08-20 04:53:00
10:53 PM,66.0,51.1,59,30.01,10.0,NW,13.8,23.0,N/A,,Clear,320,2013-08-20 05:53:00
11:53 PM,64.9,51.1,61,30.01,10.0,NW,13.8,21.9,N/A,,Clear,310,2013-08-20 06:53:00